Tavèrnoles





Hora UTC 05:20
Temperatura 7.9 ºC
Humitat 95.0 %
Pressió 1018.9 hPa
Pluja 0.0 mm
Velocitat vent 0.0 km/h
Direcció vent S
Radiació solar 0.0 W/m²

Dades diàries 2020-09-29



Hora UTC (hivern +1h; estiu +2h)
Temperatura (ºC) Humitat (%) Pressió (hPa) Velocitat vent (km/h) Precipitació (mm) Radiació solar (W/m²)
Hora UTC Aire Humitat Pressió Vel. Dir. Vel. Max Dir. Intent. màx 5 min. Rad. Sol.
00:05 7.9 94.0 1018.9 0.0 S 0.0 0.0 0.0
00:10 7.9 94.0 1018.9 0.0 S 1.6 0.0 0.0
00:15 7.9 94.0 1019.0 0.0 S 3.2 0.0 0.0
00:20 7.9 94.0 1019.0 0.0 S 3.2 0.0 0.0
00:25 7.8 94.0 1019.0 0.0 S 1.6 0.0 0.0
00:30 7.8 94.0 1019.0 0.0 S 0.0 0.0 0.0
00:35 7.7 94.0 1019.0 0.0 S 1.6 0.0 0.0
00:40 7.8 94.0 1018.8 0.0 S 1.6 0.0 0.0
00:45 7.8 94.0 1018.9 0.0 S 1.6 0.0 0.0
00:50 7.8 94.0 1018.9 0.0 S 1.6 0.0 0.0
00:55 7.8 94.0 1018.9 0.0 S 1.6 0.0 0.0
01:00 7.8 94.0 1018.8 0.0 S 0.0 0.0 0.0
01:05 7.7 94.0 1018.9 0.0 S 0.0 0.0 0.0
01:10 7.6 94.0 1018.8 0.0 S 0.0 0.0 0.0
01:15 7.7 94.0 1018.8 0.0 S 0.0 0.0 0.0
01:20 7.6 94.0 1018.9 0.0 S 0.0 0.0 0.0
01:25 7.6 94.0 1018.8 0.0 S 0.0 0.0 0.0
01:30 7.6 95.0 1018.8 0.0 S 1.6 0.0 0.0
01:35 7.6 94.0 1018.8 0.0 S 1.6 0.0 0.0
01:40 7.6 95.0 1018.9 0.0 S 0.0 0.0 0.0
01:45 7.6 95.0 1018.8 0.0 S 0.0 0.0 0.0
01:50 7.6 95.0 1018.8 0.0 S 0.0 0.0 0.0
01:55 7.4 94.0 1018.7 0.0 S 0.0 0.0 0.0
02:00 7.3 95.0 1018.7 0.0 S 1.6 0.0 0.0
02:05 7.2 95.0 1018.8 0.0 S 1.6 0.0 0.0
02:10 7.1 94.0 1018.8 0.0 S 3.2 0.0 0.0
02:15 7.1 94.0 1018.9 0.0 S 3.2 0.0 0.0
02:20 7.0 95.0 1018.9 0.0 S 3.2 0.0 0.0
02:25 6.9 95.0 1018.8 0.0 S 3.2 0.0 0.0
02:30 6.8 95.0 1018.8 0.0 S 3.2 0.0 0.0
02:35 7.0 95.0 1018.8 0.0 S 1.6 0.0 0.0
02:40 7.0 95.0 1018.8 0.0 S 3.2 0.0 0.0
02:45 6.9 95.0 1018.7 0.0 S 3.2 0.0 0.0
02:50 6.9 95.0 1018.6 0.0 S 1.6 0.0 0.0
02:55 6.8 95.0 1018.7 0.0 S 0.0 0.0 0.0
03:00 6.8 95.0 1018.8 0.0 S 0.0 0.0 0.0
03:05 6.7 95.0 1018.7 0.0 S 0.0 0.0 0.0
03:10 6.7 95.0 1018.7 0.0 S 0.0 0.0 0.0
03:15 6.7 95.0 1018.8 0.0 S 0.0 0.0 0.0
03:20 6.6 95.0 1018.7 0.0 S 0.0 0.0 0.0
03:25 6.5 95.0 1018.6 0.0 S 0.0 0.0 0.0
03:30 6.4 95.0 1018.7 0.0 S 0.0 0.0 0.0
03:35 6.4 95.0 1018.7 0.0 S 0.0 0.0 0.0
03:40 6.4 95.0 1018.7 0.0 S 1.6 0.0 0.0
03:45 6.4 95.0 1018.7 0.0 S 1.6 0.0 0.0
03:50 6.6 95.0 1018.7 0.0 S 0.0 0.0 0.0
03:55 6.7 95.0 1018.7 0.0 S 0.0 0.0 0.0
04:00 6.8 95.0 1018.7 0.0 S 0.0 0.0 0.0
04:05 7.0 95.0 1018.7 0.0 S 0.0 0.0 0.0
04:10 7.1 95.0 1018.8 0.0 S 0.0 0.0 0.0
04:15 7.2 95.0 1018.8 0.0 S 0.0 0.0 0.0
04:20 7.3 96.0 1018.8 0.0 S 0.0 0.0 0.0
04:25 7.4 96.0 1018.9 0.0 S 0.0 0.0 0.0
04:30 7.5 95.0 1018.8 0.0 S 0.0 0.0 0.0
04:35 7.6 95.0 1018.8 0.0 S 0.0 0.0 0.0
04:40 7.6 95.0 1018.8 0.0 S 0.0 0.0 0.0
04:45 7.7 95.0 1018.7 0.0 S 0.0 0.0 0.0
04:50 7.7 95.0 1018.8 0.0 S 0.0 0.0 0.0
04:55 7.7 95.0 1018.9 0.0 S 0.0 0.0 0.0
05:00 7.7 95.0 1019.0 0.0 S 0.0 0.0 0.0
05:05 7.8 96.0 1019.0 0.0 S 0.0 0.0 0.0
05:10 7.9 96.0 1019.0 0.0 S 0.0 0.0 0.0
05:15 7.9 96.0 1018.9 0.0 S 0.0 0.0 0.0
05:20 7.9 95.0 1018.9 0.0 S 0.0 0.0 0.0
Màxima 9.0 96.0 1019.0 0.0 S 3.2 0.0 0.0
Mínima 6.4 94.0 1018.6
Total 0.0